Regional Weather Roundup
Issued by NWS

Home | Current Version | Previous Version | Text Only | Print | Product List | Glossary On
Versions: 1 2 3 4 5 6 7 8 9 10 11 12 13 14 15 16 17 18 19 20 21 22 23 24 25 26 27 28 29 30 31 32 33 34 35 36 37 38 39 40 41 42 43 44 45 46 47 48 49 50
000
ASMX46 KSGX 290511
RWRMX

MEXICAN WEATHER ROUNDUP
NATIONAL WEATHER SERVICE SAN DIEGO CA
1000 PM PDT TUE JUL 28 2015

BAJA CALIFORNIA

CITY           SKY/WX    TMP DP  RH WIND       PRES   REMARKS
ENSENADA NW      N/A     68  32  26 CALM      29.90R
LA PAZ         CLEAR     82  70  65 S7        29.91R
MEXICALI       CLEAR     91  59  33 SE7       29.78R
S.J. DEL CABO  CLEAR     81  72  74 W5        29.90R
TIJUANA        CLEAR     66  59  77 CALM      29.94R

NORTHWESTERN MEXICO

CITY           SKY/WX    TMP DP  RH WIND       PRES   REMARKS
CHIHUAHUA      MOCLDY    73  52  46 S12       30.16R
CULIACAN       MOCLDY    86  77  74 SW6       29.87R HX  97
HERMOSILLO     MOCLDY    90  72  55 S6        29.92R HX  96
JUAREZ           N/A    N/A N/A N/A MISG        N/A
LOS MOCHIS       N/A    N/A N/A N/A MISG        N/A

NORTHEASTERN MEXICO

CITY           SKY/WX    TMP DP  RH WIND       PRES   REMARKS
MONTERREY      CLEAR     82  70  65 E9        29.94R

WESTERN MEXICO

CITY           SKY/WX    TMP DP  RH WIND       PRES   REMARKS
AGUASCALIENTES CLEAR     66  50  55 NW6       30.29R
GUADALAJARA    PTCLDY    68  59  73 CALM      30.20R
MAZATLAN       MOCLDY    82  75  78 W9        29.88R
PTO. VALLARTA    N/A    N/A N/A N/A MISG        N/A
ZACATECAS      CLEAR     66  45  45 SE17      30.32R

CENTRAL MEXICO

CITY           SKY/WX    TMP DP  RH WIND       PRES   REMARKS
LEON           MOCLDY    64  57  77 SE6       30.35R
MEXICO CITY    MOCLDY    64  52  63 W8        30.39R
PUEBLA         MOCLDY    59  50  72 N7        30.39R
QUERETARO      MOCLDY    63  57  82 SE6       30.38R
S. LUIS POTOSI CLEAR     63  54  72 SE12      30.34R
TAMPICO          N/A    N/A N/A N/A MISG        N/A
TOLUCA         MOCLDY    55  54  94 NW8       30.46R
VERACRUZ         N/A    N/A N/A N/A MISG        N/A

SOUTHERN MEXICO

CITY           SKY/WX    TMP DP  RH WIND       PRES   REMARKS
ACAPULCO       MOCLDY    84  79  84 N6        29.88R HX  96
OAXACA         MOCLDY    66  52  59 W6        30.28R
TAPACHULA      PTCLDY    82  79  89 CALM      29.87R
VILLAHERMOSA   CLEAR     82  73  74 NE12      29.97R

YUCATAN PENINSULA

CITY           SKY/WX    TMP DP  RH WIND       PRES   REMARKS
CANCUN         PTCLDY    82  79  89 SE6       30.03S
COZUMEL        CLEAR     73  73 100 CALM      30.03S
MERIDA         PTCLDY    81  73  78 E14       30.01R

$$



USA.gov is the U.S. government's official web portal to all federal, state and local government web resources and services.